Le nostre stazioni meteo in Italia

Pubblicità
Il mio iltempo24.it
Coventry/Coundon, Gran Bretagna (99070): Temperatura & dewpoint: 30.06.2020 01:00:00 - 06.07.2020 01:00:00 (BST)Coventry/Coundon, Gran Bretagna (99070): Temperatura -20cm & Temperatura -100cm: 30.06.2020 01:00:00 - 06.07.2020 01:00:00 (BST)Coventry/Coundon, Gran Bretagna (99070): velocità del vento & gusts: 30.06.2020 01:00:00 - 06.07.2020 01:00:00 (BST)Coventry/Coundon, Gran Bretagna (99070): direzione del vento: 30.06.2020 01:00:00 - 06.07.2020 01:00:00 (BST)Coventry/Coundon, Gran Bretagna (99070): ore di luce: 30.06.2020 01:00:00 - 06.07.2020 01:00:00 (BST)Coventry/Coundon, Gran Bretagna (99070): precipitazioni: 30.06.2020 01:00:00 - 06.07.2020 01:00:00 (BST)
Data & Tempo tt [°C] td [°C] tt -20cm [°C] tt -100cm [°C] ff [km/h] ff [kn] fx [km/h] fx [kn] dd sd [min] rr [mm]
06.07.2020 01:00:00 - - - - - - - - - - -
06.07.2020 00:00:00 12,7 7,9 - - 16 9 - - O 0 0,0
05.07.2020 23:00:00 14,0 6,9 - - 22 12 - - OSO 0 0,0
05.07.2020 22:00:00 14,8 6,1 - - 21 11 - - O 0 0,0
05.07.2020 21:00:00 15,5 5,6 - - 22 12 48 26 OSO 6 0,0
05.07.2020 20:00:00 16,0 5,3 - - 22 12 50 27 O 6 0,0
05.07.2020 19:00:00 16,5 7,4 - - 18 10 - - OSO 0 0,0
05.07.2020 18:00:00 16,9 6,6 - - 26 14 48 26 OSO 6 0,0
05.07.2020 17:00:00 17,8 6,8 - - 21 11 46 25 O 12 0,0
05.07.2020 16:00:00 17,4 6,5 - - 24 13 46 25 OSO 24 0,0
05.07.2020 15:00:00 18,0 6,3 - - 24 13 48 26 OSO 42 0,0
05.07.2020 14:00:00 17,4 6,0 - - 18 10 - - O 12 0,0
05.07.2020 13:00:00 17,1 6,4 - - 21 11 48 26 O 24 0,0
05.07.2020 12:00:00 16,9 5,9 - - 21 11 - - O 42 0,0
05.07.2020 11:00:00 16,7 7,1 - - 18 10 - - O 30 0,0
05.07.2020 10:00:00 16,0 7,3 16,9 15,4 18 10 48 26 O 42 0,0
05.07.2020 09:00:00 16,9 8,7 - - 24 13 50 27 O 54 0,0
05.07.2020 08:00:00 16,6 10,0 - - 24 13 48 26 O 54 0,0
05.07.2020 07:00:00 16,4 11,8 - - 21 11 - - OSO 36 0,0
05.07.2020 06:00:00 16,3 12,1 - - 22 12 - - OSO 0 0,0
05.07.2020 05:00:00 16,8 13,8 - - 16 9 - - OSO 0 0,0
05.07.2020 04:00:00 16,6 14,3 - - 16 9 - - SO 0 0,0
05.07.2020 03:00:00 16,2 14,6 - - 18 10 48 26 SO 0 0,2
05.07.2020 02:00:00 16,0 14,7 - - 22 12 48 26 SO 0 0,0
05.07.2020 01:00:00 16,0 13,9 - - 15 8 48 26 SO - 0,0
05.07.2020 00:00:00 16,0 13,5 - - 24 13 - - SO 0 0,0
04.07.2020 23:00:00 16,7 13,7 - - 21 11 - - SO 0 0,0
04.07.2020 22:00:00 17,1 14,0 - - 16 9 - - SSO 0 0,0
04.07.2020 21:00:00 17,8 14,3 - - 16 9 - - SO 0 0,0
04.07.2020 20:00:00 18,6 14,5 - - 13 7 - - SO 0 0,0
04.07.2020 19:00:00 18,9 14,6 - - 15 8 - - OSO 0 0,0
04.07.2020 18:00:00 19,0 14,6 - - 15 8 - - SO 0 0,0
04.07.2020 17:00:00 19,5 14,9 - - 15 8 - - SO 0 0,0
04.07.2020 16:00:00 18,2 14,7 - - 15 8 - - SO 0 0,0
04.07.2020 15:00:00 18,4 14,5 - - 13 7 - - SO 0 0,0
04.07.2020 14:00:00 18,9 14,5 - - 15 8 - - SSO 0 0,0
04.07.2020 13:00:00 18,6 14,7 - - 13 7 - - SO 0 0,0
04.07.2020 12:00:00 18,3 14,7 - - 13 7 - - SO 0 0,0
04.07.2020 11:00:00 17,5 14,4 - - 11 6 - - SO 0 0,0
04.07.2020 10:00:00 17,0 14,6 16,7 15,5 15 8 - - SO 0 0,0
04.07.2020 09:00:00 17,1 14,4 - - 13 7 - - SO 0 0,0
04.07.2020 08:00:00 16,4 14,6 - - 11 6 - - SO 0 0,0
04.07.2020 07:00:00 16,1 14,4 - - 15 8 - - SO 0 0,0
04.07.2020 06:00:00 15,9 14,4 - - 15 8 - - SO 0 0,0
04.07.2020 05:00:00 15,8 14,3 - - 18 10 - - SSO 0 0,0
04.07.2020 04:00:00 15,8 14,0 - - 16 9 - - SSO 0 0,0
04.07.2020 03:00:00 15,7 13,8 - - 16 9 - - SSO 0 0,0
04.07.2020 02:00:00 15,4 13,6 - - 16 9 - - SSO 0 0,0
04.07.2020 01:00:00 15,2 13,4 - - 16 9 48 26 SSO - 0,0
04.07.2020 00:00:00 15,0 13,1 - - 18 10 - - SSO 0 0,0
03.07.2020 23:00:00 14,9 13,0 - - 18 10 - - SSO 0 0,0
03.07.2020 22:00:00 14,7 12,8 - - 16 9 - - SSO 0 0,0
03.07.2020 21:00:00 14,5 12,7 - - 16 9 - - SSO 0 0,0
03.07.2020 20:00:00 14,7 12,7 - - 16 9 - - SSO 0 0,0
03.07.2020 19:00:00 15,0 12,8 - - 21 11 - - SO 0 0,0
03.07.2020 18:00:00 15,1 13,1 - - 16 9 - - SSO 0 0,2
03.07.2020 17:00:00 15,3 12,2 - - 15 8 - - SO 0 0,2
03.07.2020 16:00:00 15,8 11,4 - - 21 11 - - SO 0 0,0
03.07.2020 15:00:00 16,0 11,5 - - 16 9 48 26 SSO 0 0,0
03.07.2020 14:00:00 15,3 12,4 - - 16 9 - - SO 0 0,2
03.07.2020 13:00:00 15,7 11,2 - - 16 9 - - SO 0 0,0
03.07.2020 12:00:00 17,0 11,2 - - 16 9 - - SO 6 0,0
03.07.2020 11:00:00 16,1 10,9 - - 18 10 - - SO 0 0,0
03.07.2020 10:00:00 13,8 11,5 17,0 15,5 11 6 - - SSO 0 0,0
03.07.2020 09:00:00 12,8 10,8 - - 13 7 - - SO 0 0,6
03.07.2020 08:00:00 13,6 11,2 - - 13 7 - - SO 6 0,0
03.07.2020 07:00:00 12,1 10,2 - - 8 4 - - SO 6 0,0
03.07.2020 06:00:00 11,3 9,7 - - 9 5 - - SSO 0 0,0
03.07.2020 05:00:00 11,4 9,7 - - 9 5 - - SSO 0 0,0
03.07.2020 04:00:00 11,0 8,9 - - 8 4 - - OSO 0 0,0
03.07.2020 03:00:00 11,0 8,6 - - 5 3 - - O 0 0,0
03.07.2020 02:00:00 11,1 8,6 - - 5 3 - - OSO 0 0,0
03.07.2020 01:00:00 11,7 8,8 - - 5 3 - - O - 0,0
03.07.2020 00:00:00 12,2 9,2 - - 5 3 - - O 0 0,0
02.07.2020 23:00:00 13,2 10,2 - - 8 4 - - O 0 0,0
02.07.2020 22:00:00 14,3 12,1 - - 4 2 - - O 0 0,0
02.07.2020 21:00:00 15,9 13,4 - - 5 3 - - ONO 6 0,0
02.07.2020 20:00:00 16,5 13,6 - - 4 2 - - ONO 24 0,0
02.07.2020 19:00:00 15,5 13,5 - - 8 4 - - NO 0 1,0
02.07.2020 18:00:00 17,2 13,5 - - 8 4 - - N 0 0,0
02.07.2020 17:00:00 16,4 13,9 - - 5 3 - - NNO 0 1,2
02.07.2020 16:00:00 17,6 12,7 - - 9 5 - - N 30 0,0
02.07.2020 15:00:00 18,0 14,6 - - 13 7 - - N 24 0,2
02.07.2020 14:00:00 16,5 13,8 - - 9 5 - - N 6 1,0
02.07.2020 13:00:00 19,2 11,9 - - 8 4 - - NO 18 0,0
02.07.2020 12:00:00 17,5 12,3 - - 5 3 - - O 12 0,0
02.07.2020 11:00:00 16,6 13,0 - - 9 5 - - O 6 0,0
02.07.2020 10:00:00 14,7 12,1 17,0 15,5 11 6 - - OSO 12 0,0
02.07.2020 09:00:00 13,6 12,7 - - 8 4 - - OSO 0 0,0
02.07.2020 08:00:00 12,5 11,7 - - 5 3 - - OSO 6 0,6
02.07.2020 07:00:00 13,1 11,2 - - 9 5 - - OSO 24 0,0
02.07.2020 06:00:00 11,1 10,3 - - 4 2 - - SO 0 0,0
02.07.2020 05:00:00 10,8 9,8 - - 4 2 - - SSO 0 0,0
02.07.2020 04:00:00 11,4 9,7 - - 5 3 - - OSO 0 0,0
02.07.2020 03:00:00 11,8 9,9 - - 5 3 - - OSO 0 0,0
02.07.2020 02:00:00 12,4 10,3 - - 8 4 - - OSO 0 0,0
02.07.2020 01:00:00 13,2 11,3 - - 5 3 - - O - 0,0
02.07.2020 00:00:00 13,5 12,0 - - 5 3 - - SO 0 0,0
01.07.2020 23:00:00 13,6 12,0 - - 5 3 - - O 0 0,0
01.07.2020 22:00:00 14,6 12,2 - - 8 4 - - O 0 0,0
01.07.2020 21:00:00 15,9 14,7 - - 8 4 - - O 0 0,0
01.07.2020 20:00:00 15,7 14,7 - - 2 1 - - NO 0 3,4
01.07.2020 19:00:00 16,6 13,9 - - 5 3 - - O 6 2,2
01.07.2020 18:00:00 17,6 14,4 - - 8 4 - - O 0 0,6
01.07.2020 17:00:00 19,2 12,6 - - 15 8 - - OSO 18 0,0
01.07.2020 16:00:00 17,2 14,4 - - 9 5 - - OSO 0 0,2
01.07.2020 15:00:00 17,7 13,4 - - 8 4 - - OSO 0 0,0
01.07.2020 14:00:00 16,7 12,0 - - 9 5 - - NO 0 0,0
01.07.2020 13:00:00 18,7 12,0 - - 11 6 - - OSO 0 0,0
01.07.2020 12:00:00 18,0 13,2 - - 9 5 - - O 6 0,0
01.07.2020 11:00:00 16,8 12,2 - - 11 6 - - OSO 0 0,0
01.07.2020 10:00:00 15,4 13,4 17,0 15,5 9 5 - - OSO 0 0,4
01.07.2020 09:00:00 14,6 13,2 - - 5 3 - - SO 0 0,0
01.07.2020 08:00:00 14,2 12,5 - - 8 4 - - OSO 0 0,0
01.07.2020 07:00:00 14,1 11,6 - - 9 5 - - SO 0 0,0
01.07.2020 06:00:00 13,7 11,8 - - 9 5 - - SO 0 0,0
01.07.2020 05:00:00 13,9 11,7 - - 8 4 - - SO 0 0,0
01.07.2020 04:00:00 14,1 11,7 - - 8 4 - - SO 0 0,0
01.07.2020 03:00:00 14,4 12,3 - - 9 5 - - SO 0 0,0
01.07.2020 02:00:00 14,2 12,1 - - 9 5 - - SO 0 0,0
01.07.2020 01:00:00 14,7 12,1 - - 8 4 - - SO - 0,0
01.07.2020 00:00:00 15,1 12,2 - - 9 5 - - SO 0 0,0
30.06.2020 23:00:00 15,4 12,4 - - 5 3 - - SSO 0 0,0
30.06.2020 22:00:00 17,1 13,2 - - 11 6 - - SO 0 0,0
30.06.2020 21:00:00 17,5 13,6 - - 11 6 - - SSO 6 0,0
30.06.2020 20:00:00 17,9 13,5 - - 9 5 - - SSO 0 0,0
30.06.2020 19:00:00 17,3 13,2 - - 9 5 - - S 0 0,0
30.06.2020 18:00:00 17,2 12,3 - - 11 6 - - SSO 0 0,0
30.06.2020 17:00:00 17,8 11,5 - - 11 6 - - SSO 6 0,0
30.06.2020 16:00:00 18,1 11,5 - - 11 6 - - OSO 0 0,0
30.06.2020 15:00:00 18,2 10,7 - - 11 6 - - SO 18 0,0
30.06.2020 14:00:00 18,1 9,6 - - 13 7 - - SO 42 0,0
30.06.2020 13:00:00 18,2 9,4 - - 9 5 - - SO 6 0,0
30.06.2020 12:00:00 16,6 9,0 - - 15 8 - - SO 6 0,0
30.06.2020 11:00:00 15,3 9,0 - - 11 6 - - OSO 0 0,0
30.06.2020 10:00:00 14,1 9,7 16,9 15,7 13 7 - - SSO 0 0,0
30.06.2020 09:00:00 13,9 9,6 - - 11 6 - - SO 0 0,0
30.06.2020 08:00:00 13,5 9,3 - - 13 7 - - SO 0 0,0
30.06.2020 07:00:00 12,8 9,0 - - 9 5 - - SO 0 0,0
30.06.2020 06:00:00 12,5 8,7 - - 11 6 - - SO 0 0,0
30.06.2020 05:00:00 12,4 8,7 - - 11 6 - - SO 0 0,0
30.06.2020 04:00:00 12,4 8,8 - - 9 5 - - OSO 0 0,0
30.06.2020 03:00:00 12,6 8,8 - - 13 7 - - SO 0 0,0
30.06.2020 02:00:00 12,9 8,9 - - 11 6 - - SO 0 0,0
30.06.2020 01:00:00 13,0 9,0 - - 13 7 - - OSO - 0,0

tt = Temperatura
td = dewpoint
tt -20cm = Temperatura -20cm
tt -100cm = Temperatura -100cm
ff = velocità del vento
fx = gusts
dd = direzione del vento
sd = ore di luce
rr = precipitazioni

Stazioni seguenti

WeatherPro
AMSI
MeteoEarth